Home   Weather   Merzouga   Past weeks
Flag for Morocco

Past Weather in Merzouga, Morocco — Yesterday and Last 2 Weeks

Now
86 °F

Passing clouds.


Feels Like: 83 °F
Forecast: 105 / 79 °F
Wind: 3 mph from Southwest

Location: Ouarzazate

Current Time: Jul 6, 2020 at 4:43:49 am

Latest Report: Jul 6, 2020 at 4:00 am


Visibility: N/A

Pressure: 30.21 "Hg

Humidity: 18%

Dew Point: 37 °F

Location of MerzougaLocation

Past Weather in Merzouga — Graph

°F

Merzouga Temperature Yesterday

Maximum temperature yesterday: 102 °F (at 4:00 pm)
Minimum temperature yesterday: 73 °F (at 6:00 am)
Average temperature yesterday: 90 °F

High & Low Weather Summary for the Past Weeks

 TemperatureHumidityPressure
High104 °F (Jun 29, 5:00 pm)54% (Jun 21, 7:00 am)30.27 "Hg (Jun 21, 7:00 am)
Low52 °F (Jun 21, 7:00 am)2% (Jun 22, 7:00 pm)29.98 "Hg (Jun 23, 5:00 pm)
Average89 °F11%30.11 "Hg
* Reported Jun 21 3:00 am — Jul 6 3:00 am, Merzouga. Weather by CustomWeather, © 2020

Note: Actual official high and low records may vary slightly from our data, if they occured in-between our weather recording intervals... More about our weather records

Merzouga Weather History for the Previous 24 Hours

Scroll right to see more
 ConditionsComfort  
Time TempWeatherWind HumidityBarometerVisibility
3:00 am
Mon, Jul 6
86 °FPassing clouds.2 mph18%30.24 "HgN/A
2:00 am88 °FPassing clouds.3 mph16%30.24 "HgN/A
1:00 am86 °FPassing clouds.5 mph17%30.27 "HgN/A
12:00 am88 °FPassing clouds.3 mph16%30.27 "HgN/A
11:00 pm
Sun, Jul 5
90 °FPassing clouds.3 mph15%30.27 "Hg5 mi
10:00 pm91 °FPassing clouds.5 mph14%30.24 "HgN/A
9:00 pm91 °FPassing clouds.13 mph16%30.21 "HgN/A
8:00 pm93 °FPassing clouds.15 mph14%30.21 "HgN/A
7:00 pm97 °FPartly sunny.13 mph9%30.18 "Hg5 mi
6:00 pm99 °FPartly sunny.16 mph10%30.15 "HgN/A
5:00 pm100 °FScattered clouds.10 mph8%30.15 "Hg5 mi
4:00 pm102 °FScattered clouds.12 mph7%30.15 "HgN/A
3:00 pm100 °FPassing clouds.5 mph9%30.18 "Hg5 mi
2:00 pm99 °FScattered clouds.3 mph10%30.21 "Hg5 mi
1:00 pm95 °FPartly sunny.7 mph11%30.24 "Hg5 mi
12:00 pm95 °FPartly sunny.6 mph11%30.27 "Hg5 mi
11:00 am93 °FScattered clouds.2 mph12%30.24 "Hg5 mi
10:00 am90 °FClear.1 mph14%30.24 "Hg5 mi
9:00 am86 °FClear.2 mph17%30.24 "Hg5 mi
8:00 am79 °FPassing clouds.5 mph21%30.24 "Hg5 mi
7:00 am75 °FPassing clouds.2 mph21%30.21 "Hg5 mi
6:00 am73 °FPassing clouds.2 mph22%30.18 "Hg5 mi
5:00 am82 °FPassing clouds.2 mph19%30.18 "Hg5 mi
4:00 am84 °FPassing clouds.2 mph16%30.18 "Hg5 mi
Weather by CustomWeather, © 2020

See weather overview